STARLINK-4594, 53638

Orbit data source: Space-Track

STARLINK-4594, 53638 is a payload satellite owned by SpaceX/Seattle (US) in LEO that was launched on Sun, 28 Aug 2022 UTC via an FALCON 9 launch vehicle from the Air Force Eastern Test Range (AFETR). Payload-class satellites include a variety of spacecraft equipped with specific instruments for various scientific and technological missions. These include communications satellites like Starlink; space stations such as the ISS; scientific satellites like the Hubble; Earth observation satellites from companies like Planet Labs, Umbra, and HawkEye 360; GPS; miniature CubeSats for education and research; and military/defense satellites.

Loading next visibility...
Identifier
53638, 2022-104BC
Orbit
LEO
Country
Flag of USUS
Related business
Manufacturer
SpaceX/Seattle
Mission
Operational Commercial Communications
Bus & Motor
STARLINK, Unknown motor
Mass
300 kg wet, ~290 kg dry
Launch date (UTC)
2022-08-28 (3 years ago)
Launch vehicle
FALCON 9
Launch site
Air Force Eastern Test Range (AFETR)
Object type
Payload
Rocket body
Debris
Shape & HBR
Box + 1 Pan, 10.1 m
Radar Cross Section
13.562 m², Large (>1 m²)

Expand to show TLE details & history
Last TLE update: 12 hours ago

TLE from 12 hours ago
0 STARLINK-4594
1 53638U 22104BC  26036.91525676  .00000031  00000-0  20049-4 0  9995
2 53638  53.2192   6.3916 0002205  94.2096 265.9148 15.08846651191430
Epoch: 2026-02-05T21:57Z
TLE epoch observation values (Epoch: 2026-02-05T21:57:58.184Z)
Latitude
-0.00002°
Longitude
-99.16148°
Altitude
540.73 km
Speed
7.593 km/s
True Right ascension
00h 25m 33s
True Declination
0° 00' 00"
Sunlit
Object was in daylight at epoch
Visualization orbit readout
Latitude
Unknown
Longitude
Unknown
Altitude
Unknown
Speed
Unknown
Apparent Right ascension
Unknown
Apparent Declination
Unknown
Sunlit
N/A
Visualization observer readout
Local Sidereal Time
12:07:04
Azimuth
Unknown
Elevation
Unknown
Doppler factor
Unknown
Orbital elements
Apogee altitude
541.493 km
Perigee altitude
538.442 km
Semi-major axis
6,918.105 km
Eccentricity
0.00022
Inclination
53.2192°
RAAN
6.3916°
Arg. of periapsis
94.2096°
True anomaly
265.8896°
Mean anomaly
265.9148°
Eccentric anomaly
265.9022°
Mean motion
3.77192 °/min
Orbital period
95.44 mins
BSTAR
0.000020049
Loading maneuver chart data...
Computing Atmospheric mass density...
Loading historical data...
Loading historical data...
Loading historical data...
Loading historical data...
Loading historical data...
Loading historical data...
Loading historical data...

Documentation

Showing up to 5 results
|